Time,TemperatureF,DewpointF,PressureIn,WindDirection,WindDirectionDegrees,WindSpeedMPH,WindSpeedGustMPH,Humidity,HourlyPrecipIn,Conditions,Clouds,dailyrainin,SoftwareType,DateUTC
2013-08-07 00:01:00,63.0,61.0,28.83,WSW,247,3.3,6.0,93,0.00,,,0.00,Rainwise IP-100,2013-08-07 05:01:00,
2013-08-07 00:06:00,63.0,61.0,28.83,WSW,247,5.1,5.1,94,0.00,,,0.00,Rainwise IP-100,2013-08-07 05:06:00,
2013-08-07 00:11:00,63.0,61.0,28.83,WSW,247,2.3,6.0,94,0.00,,,0.00,Rainwise IP-100,2013-08-07 05:11:00,
2013-08-07 00:16:00,62.9,61.0,28.84,West,270,2.1,5.0,94,0.00,,,0.00,Rainwise IP-100,2013-08-07 05:16:00,
2013-08-07 00:21:00,62.9,61.0,28.84,West,270,1.9,6.0,94,0.00,,,0.00,Rainwise IP-100,2013-08-07 05:21:00,
2013-08-07 00:26:00,62.8,61.0,28.85,West,270,3.3,7.0,94,0.00,,,0.00,Rainwise IP-100,2013-08-07 05:26:00,
2013-08-07 00:31:00,62.7,61.0,28.85,WSW,247,2.3,6.0,94,0.00,,,0.00,Rainwise IP-100,2013-08-07 05:31:00,
2013-08-07 00:36:00,62.6,61.0,28.85,WSW,247,5.8,6.0,95,0.00,,,0.00,Rainwise IP-100,2013-08-07 05:36:00,
2013-08-07 00:41:00,62.5,61.0,28.85,WSW,247,2.8,7.0,95,0.00,,,0.00,Rainwise IP-100,2013-08-07 05:41:00,
2013-08-07 00:46:00,62.5,61.0,28.85,WSW,247,4.2,6.0,95,0.00,,,0.00,Rainwise IP-100,2013-08-07 05:46:00,
2013-08-07 00:51:00,62.5,61.0,28.85,WSW,247,5.6,6.0,95,0.00,,,0.00,Rainwise IP-100,2013-08-07 05:51:00,
2013-08-07 00:56:00,62.4,61.0,28.85,West,270,4.0,8.0,95,0.00,,,0.00,Rainwise IP-100,2013-08-07 05:56:00,
2013-08-07 01:01:00,62.4,61.0,28.85,WSW,247,1.6,6.0,95,0.00,,,0.00,Rainwise IP-100,2013-08-07 06:01:00,
2013-08-07 01:06:00,62.4,61.0,28.85,NW,315,1.6,5.0,95,0.00,,,0.00,Rainwise IP-100,2013-08-07 06:06:00,
2013-08-07 01:11:00,62.2,61.0,28.85,WSW,247,6.3,9.0,96,0.00,,,0.00,Rainwise IP-100,2013-08-07 06:11:00,
2013-08-07 01:16:00,62.1,61.0,28.85,WNW,292,2.3,7.0,96,0.00,,,0.00,Rainwise IP-100,2013-08-07 06:16:00,
2013-08-07 01:21:00,62.1,61.0,28.85,WNW,292,5.6,8.0,96,0.00,,,0.00,Rainwise IP-100,2013-08-07 06:21:00,
2013-08-07 01:26:00,62.0,61.0,28.85,WSW,247,3.7,7.0,96,0.00,,,0.00,Rainwise IP-100,2013-08-07 06:26:00,
2013-08-07 01:31:00,62.1,61.0,28.86,SW,225,4.2,7.0,96,0.00,,,0.00,Rainwise IP-100,2013-08-07 06:31:00,
2013-08-07 01:36:00,62.1,61.0,28.85,WSW,247,2.1,7.0,96,0.00,,,0.00,Rainwise IP-100,2013-08-07 06:36:00,
2013-08-07 01:41:00,62.0,61.0,28.86,SW,225,2.6,7.0,97,0.00,,,0.00,Rainwise IP-100,2013-08-07 06:41:00,
2013-08-07 01:46:00,61.8,60.0,28.86,WSW,247,4.7,7.0,97,0.00,,,0.00,Rainwise IP-100,2013-08-07 06:46:00,
2013-08-07 01:51:00,61.8,60.0,28.86,WSW,247,5.4,8.0,97,0.00,,,0.00,Rainwise IP-100,2013-08-07 06:51:00,
2013-08-07 01:56:00,61.9,61.0,28.86,WSW,247,5.6,7.0,97,0.00,,,0.00,Rainwise IP-100,2013-08-07 06:56:00,
2013-08-07 02:01:00,61.8,60.0,28.85,WNW,292,3.5,7.0,97,0.00,,,0.00,Rainwise IP-100,2013-08-07 07:01:00,
2013-08-07 02:06:00,61.9,61.0,28.86,WSW,247,6.8,6.8,97,0.00,,,0.00,Rainwise IP-100,2013-08-07 07:06:00,
2013-08-07 02:11:00,61.9,61.0,28.86,West,270,6.8,7.0,97,0.00,,,0.00,Rainwise IP-100,2013-08-07 07:11:00,
2013-08-07 02:16:00,61.9,61.0,28.86,West,270,6.5,8.0,97,0.00,,,0.00,Rainwise IP-100,2013-08-07 07:16:00,
2013-08-07 02:21:00,61.9,61.0,28.86,WNW,292,5.1,7.0,97,0.00,,,0.00,Rainwise IP-100,2013-08-07 07:21:00,
2013-08-07 02:26:00,61.9,61.0,28.86,WNW,292,1.6,7.0,98,0.00,,,0.00,Rainwise IP-100,2013-08-07 07:26:00,
2013-08-07 02:31:00,61.9,61.0,28.86,WNW,292,1.9,6.0,98,0.00,,,0.00,Rainwise IP-100,2013-08-07 07:31:00,
2013-08-07 02:36:00,61.9,61.0,28.86,WNW,292,4.0,7.0,98,0.00,,,0.00,Rainwise IP-100,2013-08-07 07:36:00,
2013-08-07 02:41:00,61.8,61.0,28.86,SW,225,4.9,7.0,98,0.00,,,0.00,Rainwise IP-100,2013-08-07 07:41:00,
2013-08-07 02:46:00,61.7,61.0,28.86,WSW,247,3.5,9.0,98,0.00,,,0.00,Rainwise IP-100,2013-08-07 07:46:00,
2013-08-07 02:51:00,61.8,61.0,28.86,WSW,247,7.2,7.2,98,0.00,,,0.00,Rainwise IP-100,2013-08-07 07:51:00,
2013-08-07 02:56:00,62.0,61.0,28.87,West,270,3.3,7.0,98,0.00,,,0.00,Rainwise IP-100,2013-08-07 07:56:00,
2013-08-07 03:01:00,62.0,61.0,28.87,West,270,2.6,7.0,98,0.00,,,0.00,Rainwise IP-100,2013-08-07 08:01:00,
2013-08-07 03:06:00,62.0,61.0,28.87,WSW,247,6.1,6.1,98,0.00,,,0.00,Rainwise IP-100,2013-08-07 08:06:00,
2013-08-07 03:11:00,62.0,61.0,28.87,WNW,292,5.6,7.0,98,0.00,,,0.00,Rainwise IP-100,2013-08-07 08:11:00,
2013-08-07 03:16:00,62.1,61.0,28.87,WNW,292,4.9,7.0,98,0.00,,,0.00,Rainwise IP-100,2013-08-07 08:16:00,
2013-08-07 03:21:00,62.1,61.0,28.87,West,270,2.6,6.0,98,0.00,,,0.00,Rainwise IP-100,2013-08-07 08:21:00,
2013-08-07 03:26:00,62.0,61.0,28.87,WSW,247,2.1,6.0,98,0.00,,,0.00,Rainwise IP-100,2013-08-07 08:26:00,
2013-08-07 03:31:00,62.1,61.0,28.87,WSW,247,2.1,6.0,98,0.00,,,0.00,Rainwise IP-100,2013-08-07 08:31:00,
2013-08-07 03:36:00,62.2,61.0,28.87,SW,225,1.9,8.0,99,0.00,,,0.00,Rainwise IP-100,2013-08-07 08:36:00,
2013-08-07 03:41:00,62.0,61.0,28.87,West,270,4.9,7.0,99,0.00,,,0.00,Rainwise IP-100,2013-08-07 08:41:00,
2013-08-07 03:46:00,61.9,61.0,28.88,WSW,247,5.8,9.0,99,0.00,,,0.00,Rainwise IP-100,2013-08-07 08:46:00,
2013-08-07 03:51:00,61.9,61.0,28.88,WNW,292,6.3,8.0,99,0.00,,,0.00,Rainwise IP-100,2013-08-07 08:51:00,
2013-08-07 03:56:00,61.9,61.0,28.88,WNW,292,4.7,8.0,99,0.00,,,0.00,Rainwise IP-100,2013-08-07 08:56:00,
2013-08-07 04:01:00,61.9,61.0,28.88,WNW,292,1.9,7.0,99,0.00,,,0.00,Rainwise IP-100,2013-08-07 09:01:00,
2013-08-07 04:06:00,61.8,61.0,28.88,West,270,5.6,7.0,99,0.00,,,0.00,Rainwise IP-100,2013-08-07 09:06:00,
2013-08-07 04:11:00,61.9,61.0,28.88,WSW,247,5.6,11.0,99,0.00,,,0.00,Rainwise IP-100,2013-08-07 09:11:00,
2013-08-07 04:16:00,62.1,61.0,28.89,West,270,2.8,8.0,99,0.00,,,0.00,Rainwise IP-100,2013-08-07 09:16:00,
2013-08-07 04:21:00,62.2,61.0,28.89,WSW,247,3.3,8.0,99,0.00,,,0.00,Rainwise IP-100,2013-08-07 09:21:00,
2013-08-07 04:26:00,62.2,61.0,28.89,WNW,292,5.4,9.0,99,0.00,,,0.00,Rainwise IP-100,2013-08-07 09:26:00,
2013-08-07 04:31:00,62.1,61.0,28.89,WNW,292,3.7,7.0,99,0.00,,,0.00,Rainwise IP-100,2013-08-07 09:31:00,
2013-08-07 04:36:00,62.0,61.0,28.89,WNW,292,7.2,7.2,99,0.00,,,0.00,Rainwise IP-100,2013-08-07 09:36:00,
2013-08-07 04:41:00,61.9,61.0,28.89,WNW,292,4.7,8.0,99,0.00,,,0.00,Rainwise IP-100,2013-08-07 09:41:00,
2013-08-07 04:46:00,61.9,61.0,28.89,NW,315,4.0,10.0,99,0.00,,,0.00,Rainwise IP-100,2013-08-07 09:46:00,
2013-08-07 04:51:00,61.9,61.0,28.89,West,270,1.4,10.0,99,0.00,,,0.00,Rainwise IP-100,2013-08-07 09:51:00,
2013-08-07 04:56:00,61.8,61.0,28.88,WNW,292,9.3,9.3,99,0.00,,,0.00,Rainwise IP-100,2013-08-07 09:56:00,
2013-08-07 05:01:00,61.7,61.0,28.88,West,270,4.2,9.0,99,0.00,,,0.00,Rainwise IP-100,2013-08-07 10:01:00,
2013-08-07 05:06:00,61.8,61.0,28.88,West,270,7.5,10.0,99,0.00,,,0.00,Rainwise IP-100,2013-08-07 10:06:00,
2013-08-07 05:11:00,61.7,61.0,28.89,NW,315,5.4,8.0,99,0.00,,,0.00,Rainwise IP-100,2013-08-07 10:11:00,
2013-08-07 05:16:00,61.7,61.0,28.89,WNW,292,7.7,9.0,99,0.00,,,0.00,Rainwise IP-100,2013-08-07 10:16:00,
2013-08-07 05:21:00,61.7,61.0,28.89,WNW,292,6.3,13.0,99,0.00,,,0.00,Rainwise IP-100,2013-08-07 10:21:00,
2013-08-07 05:26:00,61.7,61.0,28.89,WNW,292,7.5,7.5,99,0.00,,,0.00,Rainwise IP-100,2013-08-07 10:26:00,
2013-08-07 05:31:00,61.8,61.0,28.89,SW,225,2.6,8.0,99,0.00,,,0.00,Rainwise IP-100,2013-08-07 10:31:00,
2013-08-07 05:36:00,61.7,61.0,28.90,NW,315,1.2,11.0,99,0.00,,,0.00,Rainwise IP-100,2013-08-07 10:36:00,
2013-08-07 05:41:00,61.8,61.0,28.90,WSW,247,5.1,7.0,99,0.00,,,0.00,Rainwise IP-100,2013-08-07 10:41:00,
2013-08-07 05:46:00,61.8,61.0,28.91,NW,315,3.7,8.0,99,0.00,,,0.00,Rainwise IP-100,2013-08-07 10:46:00,
2013-08-07 05:51:00,61.6,61.0,28.91,WNW,292,4.4,10.0,98,0.00,,,0.00,Rainwise IP-100,2013-08-07 10:51:00,
2013-08-07 05:56:00,61.5,61.0,28.91,WNW,292,5.6,10.0,98,0.00,,,0.00,Rainwise IP-100,2013-08-07 10:56:00,
2013-08-07 06:01:00,61.4,61.0,28.91,West,270,4.0,10.0,98,0.00,,,0.00,Rainwise IP-100,2013-08-07 11:01:00,
2013-08-07 06:06:00,61.4,61.0,28.91,WSW,247,4.9,8.0,98,0.00,,,0.00,Rainwise IP-100,2013-08-07 11:06:00,
2013-08-07 06:11:00,61.4,61.0,28.92,West,270,8.4,8.4,98,0.00,,,0.00,Rainwise IP-100,2013-08-07 11:11:00,
2013-08-07 06:16:00,61.4,61.0,28.92,West,270,5.8,8.0,98,0.00,,,0.00,Rainwise IP-100,2013-08-07 11:16:00,
2013-08-07 06:21:00,61.3,60.0,28.91,WSW,247,4.9,9.0,98,0.00,,,0.00,Rainwise IP-100,2013-08-07 11:21:00,
2013-08-07 06:26:00,61.2,60.0,28.93,WSW,247,5.6,9.0,98,0.00,,,0.00,Rainwise IP-100,2013-08-07 11:26:00,
2013-08-07 06:31:00,61.2,60.0,28.93,West,270,2.8,8.0,98,0.00,,,0.00,Rainwise IP-100,2013-08-07 11:31:00,
2013-08-07 06:36:00,61.1,60.0,28.93,West,270,4.2,8.0,97,0.00,,,0.00,Rainwise IP-100,2013-08-07 11:36:00,
2013-08-07 06:41:00,61.1,60.0,28.93,WNW,292,5.8,10.0,97,0.00,,,0.00,Rainwise IP-100,2013-08-07 11:41:00,
2013-08-07 06:46:00,61.1,60.0,28.93,NW,315,2.6,9.0,97,0.00,,,0.00,Rainwise IP-100,2013-08-07 11:46:00,
2013-08-07 06:51:00,60.9,60.0,28.93,North,360,3.0,9.0,97,0.00,,,0.00,Rainwise IP-100,2013-08-07 11:51:00,
2013-08-07 06:56:00,60.8,59.0,28.93,NW,315,5.6,9.0,96,0.00,,,0.00,Rainwise IP-100,2013-08-07 11:56:00,
2013-08-07 07:01:00,60.8,59.0,28.94,West,270,4.0,11.0,96,0.00,,,0.00,Rainwise IP-100,2013-08-07 12:01:00,
2013-08-07 07:06:00,60.7,59.0,28.95,NW,315,7.0,9.0,96,0.00,,,0.00,Rainwise IP-100,2013-08-07 12:06:00,
2013-08-07 07:11:00,60.8,59.0,28.95,West,270,8.9,10.0,96,0.00,,,0.00,Rainwise IP-100,2013-08-07 12:11:00,
2013-08-07 07:16:00,60.7,59.0,28.94,North,360,6.3,12.0,95,0.00,,,0.00,Rainwise IP-100,2013-08-07 12:16:00,
2013-08-07 07:21:00,60.6,59.0,28.95,WNW,292,10.7,10.7,94,0.00,,,0.00,Rainwise IP-100,2013-08-07 12:21:00,
2013-08-07 07:26:00,60.7,58.0,28.95,West,270,4.0,15.0,93,0.00,,,0.00,Rainwise IP-100,2013-08-07 12:26:00,
2013-08-07 07:31:00,60.6,58.0,28.95,West,270,8.2,8.2,93,0.00,,,0.00,Rainwise IP-100,2013-08-07 12:31:00,
2013-08-07 07:36:00,60.6,58.0,28.96,WNW,292,2.8,11.0,93,0.00,,,0.00,Rainwise IP-100,2013-08-07 12:36:00,
2013-08-07 07:41:00,60.6,58.0,28.96,WNW,292,8.6,9.0,93,0.00,,,0.00,Rainwise IP-100,2013-08-07 12:41:00,
2013-08-07 07:46:00,60.6,59.0,28.96,West,270,6.1,11.0,94,0.00,,,0.00,Rainwise IP-100,2013-08-07 12:46:00,
2013-08-07 07:51:00,60.5,59.0,28.97,NW,315,6.3,11.0,94,0.00,,,0.00,Rainwise IP-100,2013-08-07 12:51:00,
2013-08-07 07:56:00,60.6,59.0,28.96,NW,315,8.6,11.0,94,0.00,,,0.00,Rainwise IP-100,2013-08-07 12:56:00,
2013-08-07 08:01:00,60.6,58.0,28.97,West,270,3.5,11.0,93,0.00,,,0.00,Rainwise IP-100,2013-08-07 13:01:00,
2013-08-07 08:06:00,60.6,58.0,28.97,WNW,292,6.1,10.0,93,0.00,,,0.00,Rainwise IP-100,2013-08-07 13:06:00,
2013-08-07 08:11:00,60.7,58.0,28.97,WNW,292,5.4,10.0,92,0.00,,,0.00,Rainwise IP-100,2013-08-07 13:11:00,
2013-08-07 08:16:00,60.8,58.0,28.96,SW,225,3.7,8.0,92,0.00,,,0.00,Rainwise IP-100,2013-08-07 13:16:00,
2013-08-07 08:21:00,60.8,58.0,28.97,WNW,292,7.0,8.0,92,0.00,,,0.00,Rainwise IP-100,2013-08-07 13:21:00,
2013-08-07 08:26:00,61.0,59.0,28.96,WSW,247,5.8,9.0,92,0.00,,,0.00,Rainwise IP-100,2013-08-07 13:26:00,
2013-08-07 08:31:00,61.1,58.0,28.97,WNW,292,4.0,11.0,91,0.00,,,0.00,Rainwise IP-100,2013-08-07 13:31:00,
2013-08-07 08:36:00,61.3,58.0,28.96,NNW,337,7.0,11.0,90,0.00,,,0.00,Rainwise IP-100,2013-08-07 13:36:00,
2013-08-07 08:41:00,61.5,59.0,28.97,NNW,337,3.7,11.0,90,0.00,,,0.00,Rainwise IP-100,2013-08-07 13:41:00,
2013-08-07 08:46:00,61.7,58.0,28.97,NW,315,6.3,10.0,89,0.00,,,0.00,Rainwise IP-100,2013-08-07 13:46:00,
2013-08-07 08:51:00,61.8,57.0,28.97,WNW,292,2.3,12.0,88,0.00,,,0.00,Rainwise IP-100,2013-08-07 13:51:00,
2013-08-07 08:56:00,62.1,58.0,28.98,WNW,292,5.4,11.0,87,0.00,,,0.00,Rainwise IP-100,2013-08-07 13:56:00,
2013-08-07 09:01:00,62.7,58.0,28.98,NNE,22,1.9,11.0,86,0.00,,,0.00,Rainwise IP-100,2013-08-07 14:01:00,
2013-08-07 09:06:00,62.9,58.0,28.98,NW,315,6.8,10.0,85,0.00,,,0.00,Rainwise IP-100,2013-08-07 14:06:00,
2013-08-07 09:11:00,62.9,58.0,28.98,NW,315,5.6,11.0,85,0.00,,,0.00,Rainwise IP-100,2013-08-07 14:11:00,
2013-08-07 09:16:00,62.6,57.0,28.99,WNW,292,6.3,12.0,84,0.00,,,0.00,Rainwise IP-100,2013-08-07 14:16:00,
2013-08-07 09:21:00,62.9,57.0,28.99,North,360,4.2,9.0,83,0.00,,,0.00,Rainwise IP-100,2013-08-07 14:21:00,
2013-08-07 09:26:00,63.0,57.0,28.99,NNW,337,4.2,12.0,82,0.00,,,0.00,Rainwise IP-100,2013-08-07 14:26:00,
2013-08-07 09:31:00,62.7,57.0,28.99,WSW,247,3.3,12.0,83,0.00,,,0.00,Rainwise IP-100,2013-08-07 14:31:00,
2013-08-07 09:36:00,63.0,57.0,28.99,NNE,22,6.3,10.0,82,0.00,,,0.00,Rainwise IP-100,2013-08-07 14:36:00,
2013-08-07 09:41:00,63.6,57.0,28.99,North,360,2.3,12.0,81,0.00,,,0.00,Rainwise IP-100,2013-08-07 14:41:00,
2013-08-07 09:46:00,63.5,57.0,28.99,NW,315,3.7,12.0,79,0.00,,,0.00,Rainwise IP-100,2013-08-07 14:46:00,
2013-08-07 09:51:00,63.7,57.0,29.00,NNW,337,7.0,10.0,79,0.00,,,0.00,Rainwise IP-100,2013-08-07 14:51:00,
2013-08-07 09:56:00,64.0,57.0,29.00,NNW,337,5.4,11.0,78,0.00,,,0.00,Rainwise IP-100,2013-08-07 14:56:00,
2013-08-07 10:01:00,63.5,57.0,28.99,WSW,247,4.2,11.0,79,0.00,,,0.00,Rainwise IP-100,2013-08-07 15:01:00,
2013-08-07 10:06:00,63.5,57.0,29.00,NNE,22,3.3,13.0,79,0.00,,,0.00,Rainwise IP-100,2013-08-07 15:06:00,
2013-08-07 10:11:00,64.4,57.0,29.00,NNW,337,2.8,11.0,78,0.00,,,0.00,Rainwise IP-100,2013-08-07 15:11:00,
2013-08-07 10:16:00,65.0,57.0,29.00,North,360,6.1,10.0,76,0.00,,,0.00,Rainwise IP-100,2013-08-07 15:16:00,
2013-08-07 10:21:00,65.4,57.0,29.00,North,360,5.6,11.0,74,0.00,,,0.00,Rainwise IP-100,2013-08-07 15:21:00,
2013-08-07 10:26:00,65.6,57.0,29.01,WNW,292,7.9,9.0,74,0.00,,,0.00,Rainwise IP-100,2013-08-07 15:26:00,
2013-08-07 10:31:00,64.8,56.0,29.01,WNW,292,8.2,13.0,75,0.00,,,0.00,Rainwise IP-100,2013-08-07 15:31:00,
2013-08-07 10:36:00,64.9,56.0,29.01,NNE,22,4.2,9.0,74,0.00,,,0.00,Rainwise IP-100,2013-08-07 15:36:00,
2013-08-07 10:41:00,65.7,56.0,29.00,WNW,292,7.7,9.0,73,0.00,,,0.00,Rainwise IP-100,2013-08-07 15:41:00,
2013-08-07 10:46:00,65.6,56.0,29.01,NNE,22,2.6,13.0,72,0.00,,,0.00,Rainwise IP-100,2013-08-07 15:46:00,
2013-08-07 10:51:00,65.9,56.0,29.01,NNE,22,4.2,8.0,72,0.00,,,0.00,Rainwise IP-100,2013-08-07 15:51:00,
2013-08-07 10:56:00,66.9,57.0,29.01,North,360,3.7,10.0,70,0.00,,,0.00,Rainwise IP-100,2013-08-07 15:56:00,
2013-08-07 11:01:00,67.1,56.0,29.01,NW,315,5.6,9.0,69,0.00,,,0.00,Rainwise IP-100,2013-08-07 16:01:00,
2013-08-07 11:06:00,66.6,56.0,29.01,WNW,292,5.8,11.0,68,0.00,,,0.00,Rainwise IP-100,2013-08-07 16:06:00,
2013-08-07 11:11:00,65.9,55.0,29.01,WNW,292,7.7,13.0,68,0.00,,,0.00,Rainwise IP-100,2013-08-07 16:11:00,
2013-08-07 11:16:00,66.0,55.0,29.01,NW,315,6.3,11.0,68,0.00,,,0.00,Rainwise IP-100,2013-08-07 16:16:00,
2013-08-07 11:21:00,66.8,56.0,29.01,NNE,22,10.0,10.0,68,0.00,,,0.00,Rainwise IP-100,2013-08-07 16:21:00,
2013-08-07 11:26:00,67.4,55.0,29.01,WNW,292,7.0,14.0,65,0.00,,,0.00,Rainwise IP-100,2013-08-07 16:26:00,
2013-08-07 11:31:00,67.3,54.0,29.01,NNE,22,5.8,11.0,64,0.00,,,0.00,Rainwise IP-100,2013-08-07 16:31:00,
2013-08-07 11:36:00,67.3,54.0,29.02,NNW,337,2.8,11.0,64,0.00,,,0.00,Rainwise IP-100,2013-08-07 16:36:00,
2013-08-07 11:41:00,67.5,55.0,29.01,WNW,292,7.0,8.0,65,0.00,,,0.00,Rainwise IP-100,2013-08-07 16:41:00,
2013-08-07 11:46:00,67.5,55.0,29.02,NNW,337,7.0,12.0,65,0.00,,,0.00,Rainwise IP-100,2013-08-07 16:46:00,
2013-08-07 11:51:00,67.7,54.0,29.02,WNW,292,9.6,10.0,63,0.00,,,0.00,Rainwise IP-100,2013-08-07 16:51:00,
2013-08-07 11:56:00,67.9,54.0,29.02,East,90,2.8,12.0,61,0.00,,,0.00,Rainwise IP-100,2013-08-07 16:56:00,
2013-08-07 12:01:00,68.2,54.0,29.02,North,360,7.7,9.0,61,0.00,,,0.00,Rainwise IP-100,2013-08-07 17:01:00,
2013-08-07 12:06:00,68.6,54.0,29.02,NW,315,3.7,11.0,60,0.00,,,0.00,Rainwise IP-100,2013-08-07 17:06:00,
2013-08-07 12:11:00,68.3,53.0,29.02,North,360,3.3,11.0,59,0.00,,,0.00,Rainwise IP-100,2013-08-07 17:11:00,
2013-08-07 12:16:00,68.3,53.0,29.03,NW,315,7.7,10.0,59,0.00,,,0.00,Rainwise IP-100,2013-08-07 17:16:00,
2013-08-07 12:21:00,68.3,53.0,29.03,NNW,337,5.4,11.0,58,0.00,,,0.00,Rainwise IP-100,2013-08-07 17:21:00,
2013-08-07 12:26:00,68.7,53.0,29.03,North,360,10.0,10.0,58,0.00,,,0.00,Rainwise IP-100,2013-08-07 17:26:00,
2013-08-07 12:31:00,69.5,54.0,29.02,North,360,5.8,14.0,57,0.00,,,0.00,Rainwise IP-100,2013-08-07 17:31:00,
2013-08-07 12:36:00,69.3,53.0,29.02,North,360,5.1,10.0,57,0.00,,,0.00,Rainwise IP-100,2013-08-07 17:36:00,
2013-08-07 12:41:00,69.2,53.0,29.03,North,360,5.1,10.0,57,0.00,,,0.00,Rainwise IP-100,2013-08-07 17:41:00,
2013-08-07 12:46:00,69.7,54.0,29.03,North,360,7.0,9.0,57,0.00,,,0.00,Rainwise IP-100,2013-08-07 17:46:00,
2013-08-07 12:51:00,69.8,54.0,29.02,NNE,22,4.7,9.0,57,0.00,,,0.00,Rainwise IP-100,2013-08-07 17:51:00,
2013-08-07 12:53:00,69.6,53.0,29.03,West,270,2.1,7.0,56,0.00,,,0.00,Rainwise IP-100,2013-08-07 17:53:00,
2013-08-07 12:58:00,69.8,53.0,29.02,WNW,292,9.8,9.8,56,0.00,,,0.00,Rainwise IP-100,2013-08-07 17:58:00,
2013-08-07 13:03:00,69.7,53.0,29.02,WNW,292,9.1,11.0,56,0.00,,,0.00,Rainwise IP-100,2013-08-07 18:03:00,
2013-08-07 13:08:00,69.2,53.0,29.02,North,360,5.1,11.0,55,0.00,,,0.00,Rainwise IP-100,2013-08-07 18:08:00,
2013-08-07 13:13:00,69.4,53.0,29.02,NNW,337,2.3,10.0,55,0.00,,,0.00,Rainwise IP-100,2013-08-07 18:13:00,
2013-08-07 13:18:00,69.4,53.0,29.02,WNW,292,7.2,11.0,55,0.00,,,0.00,Rainwise IP-100,2013-08-07 18:18:00,
2013-08-07 13:23:00,69.4,53.0,29.02,NE,45,3.0,8.0,56,0.00,,,0.00,Rainwise IP-100,2013-08-07 18:23:00,
2013-08-07 13:28:00,69.8,53.0,29.02,NNW,337,5.4,11.0,55,0.00,,,0.00,Rainwise IP-100,2013-08-07 18:28:00,
2013-08-07 13:33:00,70.0,52.0,29.02,NNW,337,4.9,9.0,53,0.00,,,0.00,Rainwise IP-100,2013-08-07 18:33:00,
2013-08-07 13:38:00,70.5,51.0,29.02,NNE,22,4.4,7.0,51,0.00,,,0.00,Rainwise IP-100,2013-08-07 18:38:00,
2013-08-07 13:43:00,70.7,51.0,29.02,NE,45,6.8,10.0,50,0.00,,,0.00,Rainwise IP-100,2013-08-07 18:43:00,
2013-08-07 13:48:00,70.4,51.0,29.02,NW,315,1.6,8.0,50,0.00,,,0.00,Rainwise IP-100,2013-08-07 18:48:00,
2013-08-07 13:53:00,70.8,51.0,29.03,North,360,4.2,5.0,50,0.00,,,0.00,Rainwise IP-100,2013-08-07 18:53:00,
2013-08-07 13:58:00,71.5,51.0,29.02,North,360,4.4,8.0,49,0.00,,,0.00,Rainwise IP-100,2013-08-07 18:58:00,
2013-08-07 14:03:00,71.8,50.0,29.02,NNW,337,5.8,8.0,48,0.00,,,0.00,Rainwise IP-100,2013-08-07 19:03:00,
2013-08-07 14:08:00,71.5,50.0,29.02,WNW,292,4.7,11.0,48,0.00,,,0.00,Rainwise IP-100,2013-08-07 19:08:00,
2013-08-07 14:13:00,70.8,50.0,29.02,SW,225,2.8,7.0,49,0.00,,,0.00,Rainwise IP-100,2013-08-07 19:13:00,
2013-08-07 14:18:00,70.9,51.0,29.02,South,180,0.0,7.0,50,0.00,,,0.00,Rainwise IP-100,2013-08-07 19:18:00,
2013-08-07 14:23:00,71.2,52.0,29.02,WNW,292,9.1,12.0,50,0.00,,,0.00,Rainwise IP-100,2013-08-07 19:23:00,
2013-08-07 14:28:00,71.2,52.0,29.02,North,360,2.1,9.0,50,0.00,,,0.00,Rainwise IP-100,2013-08-07 19:28:00,
2013-08-07 14:33:00,71.8,51.0,29.02,WNW,292,3.5,7.0,49,0.00,,,0.00,Rainwise IP-100,2013-08-07 19:33:00,
2013-08-07 14:38:00,72.2,51.0,29.02,WSW,247,3.5,9.0,48,0.00,,,0.00,Rainwise IP-100,2013-08-07 19:38:00,
2013-08-07 14:43:00,72.2,52.0,29.02,WNW,292,5.6,8.0,49,0.00,,,0.00,Rainwise IP-100,2013-08-07 19:43:00,
2013-08-07 14:48:00,72.1,51.0,29.02,WNW,292,3.3,7.0,48,0.00,,,0.00,Rainwise IP-100,2013-08-07 19:48:00,
2013-08-07 14:53:00,72.7,51.0,29.02,North,360,0.0,7.0,47,0.00,,,0.00,Rainwise IP-100,2013-08-07 19:53:00,
2013-08-07 14:58:00,73.1,51.0,29.02,North,360,9.1,9.1,46,0.00,,,0.00,Rainwise IP-100,2013-08-07 19:58:00,
2013-08-07 15:03:00,73.0,51.0,29.02,NNE,22,4.7,9.0,46,0.00,,,0.00,Rainwise IP-100,2013-08-07 20:03:00,
2013-08-07 15:08:00,72.9,52.0,29.02,North,360,0.0,9.0,47,0.00,,,0.00,Rainwise IP-100,2013-08-07 20:08:00,
2013-08-07 15:13:00,73.1,52.0,29.02,North,360,1.9,9.0,48,0.00,,,0.00,Rainwise IP-100,2013-08-07 20:13:00,
2013-08-07 15:18:00,73.2,52.0,29.02,NW,315,3.3,5.0,47,0.00,,,0.00,Rainwise IP-100,2013-08-07 20:18:00,
2013-08-07 15:23:00,73.4,51.0,29.02,NW,315,2.6,6.0,46,0.00,,,0.00,Rainwise IP-100,2013-08-07 20:23:00,
2013-08-07 15:28:00,73.7,52.0,29.02,NNE,22,3.5,6.0,46,0.00,,,0.00,Rainwise IP-100,2013-08-07 20:28:00,
2013-08-07 15:33:00,74.0,51.0,29.02,NNE,22,4.0,5.0,45,0.00,,,0.00,Rainwise IP-100,2013-08-07 20:33:00,
2013-08-07 15:38:00,74.5,52.0,29.02,WNW,292,3.7,7.0,45,0.00,,,0.00,Rainwise IP-100,2013-08-07 20:38:00,
2013-08-07 15:43:00,74.4,51.0,29.02,NNE,22,6.5,7.0,44,0.00,,,0.00,Rainwise IP-100,2013-08-07 20:43:00,
2013-08-07 15:48:00,73.7,50.0,29.01,NNE,22,3.0,6.0,44,0.00,,,0.00,Rainwise IP-100,2013-08-07 20:48:00,
2013-08-07 15:53:00,73.7,51.0,29.01,North,360,6.1,6.1,45,0.00,,,0.00,Rainwise IP-100,2013-08-07 20:53:00,
2013-08-07 15:58:00,74.1,51.0,29.01,WNW,292,1.2,7.0,45,0.00,,,0.00,Rainwise IP-100,2013-08-07 20:58:00,
2013-08-07 16:03:00,74.3,51.0,29.01,NNW,337,6.1,7.0,44,0.00,,,0.00,Rainwise IP-100,2013-08-07 21:03:00,
2013-08-07 16:08:00,74.3,50.0,29.01,North,360,1.9,7.0,43,0.00,,,0.00,Rainwise IP-100,2013-08-07 21:08:00,
2013-08-07 16:13:00,74.5,51.0,29.01,WSW,247,2.8,6.0,44,0.00,,,0.00,Rainwise IP-100,2013-08-07 21:13:00,
2013-08-07 16:18:00,74.5,51.0,29.01,NNE,22,6.3,8.0,44,0.00,,,0.00,Rainwise IP-100,2013-08-07 21:18:00,
2013-08-07 16:23:00,74.1,50.0,29.01,NNE,22,4.9,6.0,44,0.00,,,0.00,Rainwise IP-100,2013-08-07 21:23:00,
2013-08-07 16:28:00,74.3,52.0,29.02,NW,315,5.8,5.8,45,0.00,,,0.00,Rainwise IP-100,2013-08-07 21:28:00,
2013-08-07 16:33:00,74.5,51.0,29.01,NW,315,3.3,9.0,44,0.00,,,0.00,Rainwise IP-100,2013-08-07 21:33:00,
2013-08-07 16:38:00,74.5,51.0,29.01,WSW,247,6.5,6.5,44,0.00,,,0.00,Rainwise IP-100,2013-08-07 21:38:00,
2013-08-07 16:43:00,74.4,52.0,29.01,NW,315,3.0,7.0,45,0.00,,,0.00,Rainwise IP-100,2013-08-07 21:43:00,
2013-08-07 16:48:00,74.2,53.0,29.01,WNW,292,3.0,7.0,46,0.00,,,0.00,Rainwise IP-100,2013-08-07 21:48:00,
2013-08-07 16:53:00,74.4,51.0,29.01,WNW,292,4.9,8.0,44,0.00,,,0.00,Rainwise IP-100,2013-08-07 21:53:00,
2013-08-07 16:58:00,74.1,50.0,29.01,NNW,337,3.7,8.0,42,0.00,,,0.00,Rainwise IP-100,2013-08-07 21:58:00,
2013-08-07 17:03:00,74.3,50.0,29.01,NNE,22,6.8,6.8,43,0.00,,,0.00,Rainwise IP-100,2013-08-07 22:03:00,
2013-08-07 17:08:00,74.3,51.0,29.01,NE,45,1.2,9.0,44,0.00,,,0.00,Rainwise IP-100,2013-08-07 22:08:00,
2013-08-07 17:13:00,74.0,51.0,29.01,WNW,292,4.0,11.0,45,0.00,,,0.00,Rainwise IP-100,2013-08-07 22:13:00,
2013-08-07 17:18:00,74.1,51.0,29.01,WNW,292,6.1,7.0,45,0.00,,,0.00,Rainwise IP-100,2013-08-07 22:18:00,
2013-08-07 17:23:00,74.2,52.0,29.01,WNW,292,2.6,7.0,45,0.00,,,0.00,Rainwise IP-100,2013-08-07 22:23:00,
2013-08-07 17:28:00,74.3,51.0,29.01,NW,315,2.8,8.0,44,0.00,,,0.00,Rainwise IP-100,2013-08-07 22:28:00,
2013-08-07 17:33:00,74.8,51.0,29.01,NW,315,1.4,6.0,44,0.00,,,0.00,Rainwise IP-100,2013-08-07 22:33:00,
2013-08-07 17:38:00,75.4,52.0,29.01,West,270,2.6,5.0,44,0.00,,,0.00,Rainwise IP-100,2013-08-07 22:38:00,
2013-08-07 17:43:00,75.2,52.0,29.01,NW,315,2.6,11.0,44,0.00,,,0.00,Rainwise IP-100,2013-08-07 22:43:00,
2013-08-07 17:48:00,74.5,51.0,29.02,SW,225,1.2,10.0,44,0.00,,,0.00,Rainwise IP-100,2013-08-07 22:48:00,
2013-08-07 17:53:00,74.3,51.0,29.01,WNW,292,6.3,7.0,44,0.00,,,0.00,Rainwise IP-100,2013-08-07 22:53:00,
2013-08-07 17:58:00,74.1,51.0,29.01,WSW,247,4.7,8.0,45,0.00,,,0.00,Rainwise IP-100,2013-08-07 22:58:00,
2013-08-07 18:03:00,74.3,51.0,29.01,North,360,1.4,5.0,44,0.00,,,0.00,Rainwise IP-100,2013-08-07 23:03:00,
2013-08-07 18:08:00,74.8,51.0,29.01,NNW,337,3.3,5.0,44,0.00,,,0.00,Rainwise IP-100,2013-08-07 23:08:00,
2013-08-07 18:13:00,74.7,50.0,29.01,WNW,292,5.4,8.0,43,0.00,,,0.00,Rainwise IP-100,2013-08-07 23:13:00,
2013-08-07 18:18:00,74.2,51.0,29.01,WNW,292,4.7,7.0,44,0.00,,,0.00,Rainwise IP-100,2013-08-07 23:18:00,
2013-08-07 18:23:00,73.9,50.0,29.01,WNW,292,2.6,8.0,44,0.00,,,0.00,Rainwise IP-100,2013-08-07 23:23:00,
2013-08-07 18:28:00,74.1,50.0,29.01,NW,315,1.4,6.0,43,0.00,,,0.00,Rainwise IP-100,2013-08-07 23:28:00,
2013-08-07 18:33:00,74.4,50.0,29.01,North,360,2.8,4.0,43,0.00,,,0.00,Rainwise IP-100,2013-08-07 23:33:00,
2013-08-07 18:38:00,74.7,50.0,29.01,North,360,3.7,6.0,43,0.00,,,0.00,Rainwise IP-100,2013-08-07 23:38:00,
2013-08-07 18:43:00,74.9,52.0,29.01,WNW,292,2.6,5.0,44,0.00,,,0.00,Rainwise IP-100,2013-08-07 23:43:00,
2013-08-07 18:48:00,75.1,52.0,29.01,NNW,337,3.0,4.0,44,0.00,,,0.00,Rainwise IP-100,2013-08-07 23:48:00,
2013-08-07 18:53:00,75.4,51.0,29.01,NNE,22,4.2,4.2,43,0.00,,,0.00,Rainwise IP-100,2013-08-07 23:53:00,
2013-08-07 18:58:00,75.0,51.0,29.01,WNW,292,1.6,5.0,43,0.00,,,0.00,Rainwise IP-100,2013-08-07 23:58:00,
2013-08-07 19:03:00,74.3,51.0,29.01,NW,315,6.8,7.0,44,0.00,,,0.00,Rainwise IP-100,2013-08-08 00:03:00,
2013-08-07 19:08:00,73.9,51.0,29.01,WNW,292,3.5,6.0,45,0.00,,,0.00,Rainwise IP-100,2013-08-08 00:08:00,
2013-08-07 19:13:00,74.0,51.0,29.02,WNW,292,3.7,5.0,45,0.00,,,0.00,Rainwise IP-100,2013-08-08 00:13:00,
2013-08-07 19:18:00,74.0,52.0,29.02,WNW,292,1.2,6.0,46,0.00,,,0.00,Rainwise IP-100,2013-08-08 00:18:00,
2013-08-07 19:23:00,73.8,52.0,29.01,WNW,292,1.6,5.0,46,0.00,,,0.00,Rainwise IP-100,2013-08-08 00:23:00,
2013-08-07 19:28:00,73.7,52.0,29.01,WNW,292,3.3,5.0,46,0.00,,,0.00,Rainwise IP-100,2013-08-08 00:28:00,
2013-08-07 19:33:00,73.6,52.0,29.01,WNW,292,3.0,4.0,47,0.00,,,0.00,Rainwise IP-100,2013-08-08 00:33:00,
2013-08-07 19:38:00,73.4,53.0,29.01,WNW,292,2.8,4.0,48,0.00,,,0.00,Rainwise IP-100,2013-08-08 00:38:00,
2013-08-07 19:43:00,73.2,53.0,29.02,WSW,247,4.7,4.7,48,0.00,,,0.00,Rainwise IP-100,2013-08-08 00:43:00,
2013-08-07 19:48:00,72.9,52.0,29.02,WNW,292,4.7,6.0,48,0.00,,,0.00,Rainwise IP-100,2013-08-08 00:48:00,
2013-08-07 19:53:00,72.5,53.0,29.02,WNW,292,4.0,5.0,49,0.00,,,0.00,Rainwise IP-100,2013-08-08 00:53:00,
2013-08-07 19:58:00,72.4,53.0,29.02,WNW,292,4.0,5.0,50,0.00,,,0.00,Rainwise IP-100,2013-08-08 00:58:00,
2013-08-07 20:03:00,72.1,53.0,29.02,WNW,292,3.3,4.0,51,0.00,,,0.00,Rainwise IP-100,2013-08-08 01:03:00,
2013-08-07 20:08:00,71.8,53.0,29.02,WNW,292,1.9,5.0,52,0.00,,,0.00,Rainwise IP-100,2013-08-08 01:08:00,
2013-08-07 20:13:00,71.7,53.0,29.02,WNW,292,3.0,3.0,52,0.00,,,0.00,Rainwise IP-100,2013-08-08 01:13:00,
2013-08-07 20:18:00,71.7,53.0,29.02,WNW,292,2.3,4.0,53,0.00,,,0.00,Rainwise IP-100,2013-08-08 01:18:00,
2013-08-07 20:23:00,71.4,54.0,29.02,WNW,292,1.6,3.0,55,0.00,,,0.00,Rainwise IP-100,2013-08-08 01:23:00,
2013-08-07 20:28:00,70.9,54.0,29.02,WNW,292,1.4,3.0,56,0.00,,,0.00,Rainwise IP-100,2013-08-08 01:28:00,
2013-08-07 20:33:00,70.5,55.0,29.02,WSW,247,1.9,2.0,59,0.00,,,0.00,Rainwise IP-100,2013-08-08 01:33:00,
2013-08-07 20:38:00,69.9,56.0,29.03,WSW,247,2.1,2.1,62,0.00,,,0.00,Rainwise IP-100,2013-08-08 01:38:00,
2013-08-07 20:43:00,69.3,56.0,29.02,WSW,247,2.3,3.0,63,0.00,,,0.00,Rainwise IP-100,2013-08-08 01:43:00,
2013-08-07 20:48:00,68.9,56.0,29.03,WSW,247,2.8,3.0,65,0.00,,,0.00,Rainwise IP-100,2013-08-08 01:48:00,
2013-08-07 20:53:00,68.5,56.0,29.03,WSW,247,2.6,2.6,66,0.00,,,0.00,Rainwise IP-100,2013-08-08 01:53:00,
2013-08-07 20:58:00,68.2,56.0,29.03,WSW,247,1.6,3.0,67,0.00,,,0.00,Rainwise IP-100,2013-08-08 01:58:00,
2013-08-07 21:03:00,68.0,57.0,29.03,WSW,247,1.6,3.0,69,0.00,,,0.00,Rainwise IP-100,2013-08-08 02:03:00,
2013-08-07 21:08:00,67.7,57.0,29.04,WSW,247,1.6,3.0,71,0.00,,,0.00,Rainwise IP-100,2013-08-08 02:08:00,
2013-08-07 21:13:00,67.4,57.0,29.04,WSW,247,0.0,2.0,71,0.00,,,0.00,Rainwise IP-100,2013-08-08 02:13:00,
2013-08-07 21:18:00,67.2,57.0,29.04,WSW,247,4.4,4.4,71,0.00,,,0.00,Rainwise IP-100,2013-08-08 02:18:00,
2013-08-07 21:23:00,66.7,57.0,29.05,WNW,292,1.6,5.0,71,0.00,,,0.00,Rainwise IP-100,2013-08-08 02:23:00,
2013-08-07 21:28:00,66.3,57.0,29.05,West,270,0.0,2.0,73,0.00,,,0.00,Rainwise IP-100,2013-08-08 02:28:00,
2013-08-07 21:33:00,66.4,57.0,29.05,West,270,1.6,2.0,74,0.00,,,0.00,Rainwise IP-100,2013-08-08 02:33:00,
2013-08-07 21:38:00,66.3,58.0,29.05,West,270,0.0,2.0,75,0.00,,,0.00,Rainwise IP-100,2013-08-08 02:38:00,
2013-08-07 21:43:00,65.9,57.0,29.05,West,270,0.0,1.0,75,0.00,,,0.00,Rainwise IP-100,2013-08-08 02:43:00,
2013-08-07 21:48:00,65.6,57.0,29.06,West,270,0.0,0.0,74,0.00,,,0.00,Rainwise IP-100,2013-08-08 02:48:00,
2013-08-07 21:53:00,65.3,56.0,29.05,West,270,0.0,1.0,74,0.00,,,0.00,Rainwise IP-100,2013-08-08 02:53:00,
2013-08-07 21:58:00,65.3,56.0,29.06,West,270,0.0,1.0,74,0.00,,,0.00,Rainwise IP-100,2013-08-08 02:58:00,
2013-08-07 22:03:00,65.2,57.0,29.06,West,270,0.0,0.0,76,0.00,,,0.00,Rainwise IP-100,2013-08-08 03:03:00,
2013-08-07 22:08:00,64.9,58.0,29.06,West,270,0.0,1.0,79,0.00,,,0.00,Rainwise IP-100,2013-08-08 03:08:00,
2013-08-07 22:13:00,64.7,58.0,29.06,West,270,0.0,0.0,80,0.00,,,0.00,Rainwise IP-100,2013-08-08 03:13:00,
2013-08-07 22:18:00,64.9,58.0,29.06,West,270,0.0,0.0,79,0.00,,,0.00,Rainwise IP-100,2013-08-08 03:18:00,
2013-08-07 22:23:00,65.1,57.0,29.06,West,270,1.4,0.0,77,0.00,,,0.00,Rainwise IP-100,2013-08-08 03:23:00,
2013-08-07 22:28:00,65.4,58.0,29.06,West,270,2.1,2.1,77,0.00,,,0.00,Rainwise IP-100,2013-08-08 03:28:00,
2013-08-07 22:33:00,65.6,58.0,29.06,West,270,0.0,2.0,78,0.00,,,0.00,Rainwise IP-100,2013-08-08 03:33:00,
2013-08-07 22:38:00,65.4,59.0,29.06,West,270,0.0,2.0,81,0.00,,,0.00,Rainwise IP-100,2013-08-08 03:38:00,
2013-08-07 22:43:00,65.1,59.0,29.06,West,270,1.6,1.6,82,0.00,,,0.00,Rainwise IP-100,2013-08-08 03:43:00,
2013-08-07 22:48:00,65.1,59.0,29.07,West,270,0.0,2.0,83,0.00,,,0.00,Rainwise IP-100,2013-08-08 03:48:00,
2013-08-07 22:53:00,64.9,60.0,29.07,West,270,1.6,1.6,84,0.00,,,0.00,Rainwise IP-100,2013-08-08 03:53:00,
2013-08-07 22:58:00,64.8,59.0,29.06,West,270,0.0,2.0,84,0.00,,,0.00,Rainwise IP-100,2013-08-08 03:58:00,
2013-08-07 23:01:00,64.7,59.0,29.07,West,270,0.0,2.0,84,0.00,,,0.00,Rainwise IP-100,2013-08-08 04:01:00,
2013-08-07 23:06:00,64.6,59.0,29.07,West,270,0.0,1.0,83,0.00,,,0.00,Rainwise IP-100,2013-08-08 04:06:00,
2013-08-07 23:11:00,64.4,59.0,29.06,West,270,0.0,0.0,82,0.00,,,0.00,Rainwise IP-100,2013-08-08 04:11:00,
2013-08-07 23:16:00,64.1,58.0,29.08,West,270,0.0,0.0,81,0.00,,,0.00,Rainwise IP-100,2013-08-08 04:16:00,
2013-08-07 23:21:00,64.1,58.0,29.07,West,270,0.0,1.0,82,0.00,,,0.00,Rainwise IP-100,2013-08-08 04:21:00,
2013-08-07 23:26:00,64.3,59.0,29.07,West,270,0.0,2.0,84,0.00,,,0.00,Rainwise IP-100,2013-08-08 04:26:00,
2013-08-07 23:31:00,64.4,59.0,29.07,West,270,0.0,1.0,82,0.00,,,0.00,Rainwise IP-100,2013-08-08 04:31:00,
2013-08-07 23:36:00,64.5,57.0,29.07,West,270,0.0,1.0,78,0.00,,,0.00,Rainwise IP-100,2013-08-08 04:36:00,
2013-08-07 23:41:00,64.5,56.0,29.06,West,270,0.0,0.0,76,0.00,,,0.00,Rainwise IP-100,2013-08-08 04:41:00,
2013-08-07 23:46:00,64.6,57.0,29.06,East,90,1.2,0.0,78,0.00,,,0.00,Rainwise IP-100,2013-08-08 04:46:00,
2013-08-07 23:51:00,64.7,59.0,29.06,East,90,0.0,2.0,83,0.00,,,0.00,Rainwise IP-100,2013-08-08 04:51:00,
2013-08-07 23:56:00,64.6,60.0,29.06,East,90,0.0,0.0,87,0.00,,,0.00,Rainwise IP-100,2013-08-08 04:56:00,